Flag for U.S.A. Weather past 2 weeks in Orlando, Florida, U.S.A.

Now
85 °F

Sunny.


Feels Like: 90 °F
Forecast: 74 / 89 °F
Wind: 10 mph from Northeast

Location: Orlando Executive Airport

Current Time: May 22, 2015 at 8:06:42 PM

Latest Report: May 22, 2015 at 6:53 PM


Visibility: 10 mi

Pressure: 30.08 "Hg

Humidity: 63%

Dew point: 71 °F

Location of OrlandoLocation

Historic Weather in Orlando — Graph

°F

Orlando temperature yesterday

Maximum temperature yesterday: 93 °F (at 4:53 PM)
Minimum temperature yesterday: 73 °F (at 5:53 AM)
Average temperature yesterday: 83 °F

Past Weeks' High & Low Weather Summary

 TemperatureHumidityPressure
High94 °F (May 20, 3:53 PM)94% (May 13, 4:53 AM)30.25 "Hg (May 13, 4:53 AM)
Low66 °F (May 8, 5:53 AM)26% (May 7, 6:53 PM)29.91 "Hg (May 20, 4:53 PM)
Average80 °F68%30.11 "Hg
* Reported May 7 6:53 PM — May 22 6:53 PM, Orlando, Weather by CustomWeather, © 2015

Note: Actual official high and low records may vary slightly from our data, if they occured in-between our weather recording intervals... More about our weather records

Advertising

Orlando weather history for previous 24 hours

 ConditionsComfort  
Time TempWeatherWind HumidityBarometerVisibility
6:53 PM
Fri, May 22
85 °FSunny.10 mph63%30.08 "Hg10 mi
5:53 PM87 °FPassing clouds.15 mph61%30.07 "Hg10 mi
4:53 PM92 °FThundershowers. Partly sunny.18 mph46%30.07 "Hg10 mi
3:53 PM92 °FScattered clouds.8 mph44%30.07 "Hg10 mi
2:53 PM93 °FMostly cloudy.8 mph42%30.09 "Hg10 mi
1:53 PM91 °FPartly sunny.No wind45%30.09 "Hg10 mi
12:53 PM91 °FSunny.7 mph45%30.10 "Hg10 mi
11:53 AM89 °FSunny.6 mph46%30.11 "Hg10 mi
10:53 AM85 °FPassing clouds.3 mph55%30.11 "Hg10 mi
9:53 AM83 °FPassing clouds.6 mph63%30.10 "Hg10 mi
8:53 AM80 °FSunny.10 mph67%30.09 "Hg10 mi
7:53 AM78 °FSunny.9 mph76%30.07 "Hg10 mi
6:53 AM77 °FClear.6 mph88%30.05 "Hg10 mi
5:53 AM78 °FClear.5 mph87%30.02 "Hg10 mi
4:53 AM78 °FClear.7 mph87%30.01 "Hg10 mi
3:53 AM78 °FClear.7 mph87%30.01 "Hg10 mi
2:53 AM78 °FClear.7 mph87%30.01 "Hg10 mi
1:53 AM78 °FClear.8 mph84%30.01 "Hg10 mi
12:53 AM79 °FClear.7 mph82%30.02 "Hg10 mi
11:53 PM
Thu, May 21
80 °FClear.9 mph76%30.02 "Hg10 mi
10:53 PM81 °FClear.12 mph72%30.01 "Hg10 mi
9:53 PM84 °FClear.9 mph59%29.98 "Hg10 mi
8:53 PM87 °FSunny.10 mph50%29.95 "Hg10 mi
Weather by CustomWeather, © 2015

See weather overviewHow to use our weather pages